Lapse_Rate
6.5 6.5 6.5 6.5 6.5 6.5 6.5 6.5 6.5 6.5 6.5 6.5 6.5 6.5 5.7 5.3 5.8 6.6 6.8 6.6 6.3 6.1 5.4 4.9 4.5 3.6 3.4 4.3 5.4 5.3 5.1 5.4 5.7 6.0 4.7 4.0 3.3 2.5 2.3 2.0 1.1 1.5 1.7 1.7
6.5 6.5 6.5 6.5 6.5 6.5 6.5 6.5 6.5 6.5 6.5 6.5 5.8 5.4 5.6 5.3 6.1 6.6 7.0 6.7 5.7 5.4 5.2 4.7 4.6 3.6 2.9 3.2 5.4 5.1 5.0 4.8 4.7 4.2 3.7 2.8 2.1 1.6 1.0 0.8 1.2 1.9 1.8 2.3
6.5 6.5 6.5 6.5 6.5 6.5 6.5 6.5 6.5 6.5 6.5 6.5 6.5 6.5 6.1 5.9 6.3 6.7 6.7 7.1 6.6 6.0 4.9 4.3 3.9 3.2 2.2 1.9 3.2 2.4 2.2 2.4 2.2 2.0 1.7 1.4 1.7 1.3 0.7 0.8 1.2 1.7 2.2 3.0
6.5 6.5 6.5 6.5 6.5 6.5 6.5 6.5 6.5 6.5 6.5 6.4 6.1 5.7 6.1 6.6 6.6 6.2 6.4 7.1 6.3 6.3 4.4 3.7 3.6 2.8 2.2 2.2 1.4 1.2 1.1 1.0 1.1 1.0 1.0 1.3 1.3 0.8 1.9 2.2 2.2 2.6 3.2 3.2
6.5 6.5 6.5 6.5 6.5 6.5 6.5 6.5 6.5 6.5 6.5 6.0 5.3 5.4 5.9 6.5 6.8 5.8 6.3 5.2 5.6 6.8 5.0 3.8 3.4 3.0 2.6 1.8 1.8 1.3 1.0 0.9 1.2 0.9 1.7 1.4 1.2 1.6 2.2 2.3 2.4 3.0 3.2 2.4
6.5 6.5 6.5 6.5 6.5 6.1 6.5 6.5 6.3 6.2 6.5 6.3 5.2 6.5 6.5 6.2 7.0 7.0 5.8 5.6 5.5 7.3 5.8 4.1 3.6 3.6 2.8 2.6 2.5 1.8 1.4 1.5 2.0 2.0 1.4 1.6 2.5 2.7 3.2 3.1 3.1 2.9 2.5 2.2
6.5 6.5 6.5 6.5 6.3 6.2 6.5 6.5 6.1 6.2 5.9 5.6 6.5 5.7 5.5 6.2 6.6 5.8 5.6 5.5 6.5 4.8 4.2 3.7 3.3 3.3 2.2 2.4 2.3 2.4 2.1 2.2 1.9 2.4 1.6 2.4 2.6 2.8 3.1 3.1 2.8 2.8 2.2 2.4
6.5 6.5 6.5 5.9 6.4 6.5 6.3 5.9 6.1 6.0 5.8 6.7 6.0 5.7 6.1 6.0 6.3 5.9 4.7 5.3 5.6 4.6 4.4 3.5 2.9 2.8 2.1 1.7 3.5 3.1 2.5 2.3 2.3 2.2 2.1 2.0 2.2 2.7 3.2 2.6 2.3 2.6 2.6 2.4
6.5 6.5 6.2 6.3 6.5 6.5 6.4 6.0 6.6 6.2 6.2 6.2 6.1 6.5 5.7 5.7 5.9 5.7 5.4 4.4 4.9 4.2 4.4 5.2 4.0 3.6 2.5 2.8 3.4 3.3 3.2 2.7 2.4 2.7 2.9 3.2 3.5 3.8 3.6 3.0 1.9 2.1 1.8 1.4
6.5 6.5 6.4 6.5 6.4 6.7 6.9 6.7 6.8 6.7 6.6 6.5 6.5 6.3 6.7 5.6 5.5 5.2 4.3 4.0 4.3 4.0 4.3 5.0 4.9 3.9 3.0 4.2 4.5 4.3 3.6 3.7 3.9 3.6 3.5 3.5 4.0 4.4 3.6 2.6 2.0 1.3 1.2 0.9
6.5 6.4 6.3 6.4 5.9 6.5 7.1 7.3 7.1 7.0 6.8 6.9 6.5 6.3 5.6 5.6 5.9 5.3 4.6 3.8 3.1 3.9 4.4 4.4 4.7 3.8 4.1 4.9 4.6 4.0 4.1 4.5 4.8 5.0 4.6 4.3 3.8 3.1 2.0 2.2 2.5 1.6 1.4 1.6
6.5 6.5 6.5 6.6 7.2 7.3 6.9 7.1 7.1 7.0 7.0 6.9 6.8 6.4 6.4 5.5 5.4 5.5 4.5 3.8 3.4 4.0 4.5 4.0 4.8 4.4 4.4 4.3 4.4 3.9 3.8 3.8 3.5 3.3 3.2 2.9 2.3 2.6 4.5 4.3 4.6 4.2 3.5 2.6
6.4 6.8 6.7 6.9 7.0 7.0 6.6 6.6 6.7 6.7 6.6 6.2 6.7 6.7 6.3 5.6 5.7 6.0 4.9 4.0 3.4 3.3 3.4 3.5 2.9 3.8 3.8 4.0 4.0 3.6 2.5 2.8 2.7 2.1 1.7 1.3 1.2 1.0 0.7 2.9 4.1 4.2 4.3 4.1
6.9 6.8 6.6 7.0 6.8 7.2 7.2 7.2 7.4 7.3 7.3 6.9 6.6 6.3 6.2 5.9 5.6 5.3 4.3 3.9 4.6 3.5 3.6 3.4 3.1 3.3 3.1 3.2 3.0 2.7 2.0 2.5 1.4 1.5 1.5 1.4 1.3 1.1 0.9 0.5 0.6 0.9 3.3 3.2
5.8 5.7 6.3 6.1 6.3 6.5 6.5 7.1 6.5 6.5 6.9 6.9 6.3 6.4 6.1 6.2 5.3 4.6 4.4 3.7 4.4 4.0 3.5 3.4 3.3 3.1 3.2 3.2 2.8 2.4 2.0 1.0 1.0 1.1 1.3 1.8 1.2 0.7 0.5 0.6 0.5 0.4 0.4 2.1
7.7 7.8 7.7 7.2 7.3 7.6 7.5 7.1 6.9 7.1 6.4 6.5 5.9 5.6 5.9 5.7 5.6 5.2 4.6 3.5 3.8 3.6 3.4 2.8 3.4 2.8 3.2 2.7 2.1 2.2 1.9 2.2 2.1 1.9 1.8 1.3 1.1 0.9 0.8 0.6 0.2 0.1 0.1 0.5
6.9 6.9 7.3 7.3 7.6 7.5 7.7 7.9 7.6 6.5 6.4 6.0 5.6 5.6 5.5 5.4 5.3 5.2 4.5 3.7 4.0 3.5 2.9 2.6 2.3 2.6 2.2 2.1 2.0 2.0 2.3 2.6 2.6 1.6 1.3 1.3 1.1 1.0 0.7 -0.0 0.0 -0.1 0.6 1.6
8.2 8.0 7.7 7.9 7.9 7.7 7.7 7.9 8.0 7.9 7.1 6.3 5.7 5.5 5.2 4.4 4.2 4.4 4.6 4.1 3.7 3.2 1.9 1.5 1.3 1.7 2.7 2.0 2.0 1.6 2.0 2.0 1.8 1.7 1.3 1.4 1.1 0.5 0.4 0.5 0.4 0.5 1.0 2.5
7.9 7.4 7.3 7.4 7.5 7.5 7.7 7.5 7.1 7.5 6.5 5.0 4.4 4.2 3.9 3.6 3.6 3.4 3.0 3.6 3.4 3.1 1.5 1.3 1.6 2.1 2.4 2.4 1.8 1.6 1.8 1.7 1.8 1.8 1.6 2.7 1.6 1.2 0.6 0.6 0.7 0.8 0.9 1.8
7.3 7.4 7.2 6.9 6.7 6.4 5.9 6.0 7.1 7.3 6.6 5.9 5.0 4.4 3.8 3.3 2.8 2.8 2.2 3.1 4.0 3.4 2.2 1.8 1.6 1.9 2.9 3.3 4.0 2.0 2.1 2.2 1.9 1.7 1.8 1.4 1.4 1.0 0.8 2.0 1.1 1.3 1.3 1.7
7.0 6.6 6.9 6.8 6.6 6.2 5.2 6.5 6.3 6.4 5.9 5.5 5.1 4.8 3.0 2.2 2.5 2.1 1.7 2.0 2.3 3.6 2.7 2.3 2.1 2.3 2.8 2.7 3.2 3.3 2.5 2.3 2.2 2.2 2.5 1.9 2.2 1.1 1.1 1.3 1.7 1.9 1.8 1.9
6.6 6.1 6.7 6.7 6.5 5.9 5.1 4.3 4.1 3.8 3.2 2.8 2.3 1.8 1.5 1.1 1.5 2.0 2.3 2.3 2.4 4.0 2.3 2.0 3.0 3.1 3.6 3.5 3.9 3.8 3.3 3.1 2.4 3.1 3.7 2.5 1.9 1.5 1.1 1.2 1.3 1.3 1.5 1.1
6.4 5.8 6.3 6.3 6.6 6.3 5.5 5.1 4.7 4.4 4.3 4.3 3.9 3.7 3.4 2.9 2.4 3.1 2.7 3.0 2.6 3.9 3.4 3.3 3.9 3.7 3.9 3.6 3.8 3.9 4.2 4.0 3.7 3.9 2.7 2.2 2.2 1.8 0.4 0.3 0.3 0.8 0.2 0.2
5.3 5.6 5.1 5.7 5.8 5.7 6.2 5.8 5.2 4.8 4.6 4.6 4.4 4.7 5.2 5.0 5.1 4.9 4.8 5.1 4.8 4.1 3.7 3.8 4.0 4.1 3.6 3.3 3.6 3.4 3.1 3.6 3.6 2.5 2.6 2.8 0.9 0.1 -1.1 -1.1 -0.8 -0.0 0.6 3.0
4.9 4.5 4.3 4.5 5.2 5.7 5.3 5.2 4.9 4.5 3.8 3.8 3.9 3.7 3.8 3.8 3.9 4.2 4.0 4.0 4.3 4.0 4.4 4.8 4.3 3.8 2.9 2.9 3.1 3.6 3.9 3.6 2.6 1.9 2.0 2.2 2.7 2.8 2.8 2.9 2.9 3.3 3.4 4.0
4.8 4.2 4.2 3.9 4.3 4.4 3.9 4.1 4.0 3.9 3.4 3.4 3.0 2.9 3.2 3.1 2.8 2.4 2.8 2.7 2.3 2.5 2.5 2.7 2.3 2.2 2.3 2.4 2.5 2.7 2.2 1.4 0.7 1.2 0.5 0.1 -0.2 0.2 -0.3 0.4 0.4 0.2 -0.3 0.4
3.8 4.8 3.4 3.4 3.5 3.5 4.5 3.8 3.1 4.2 3.3 2.9 2.8 2.5 2.3 2.1 2.4 2.1 2.3 1.7 1.4 1.2 1.3 1.6 2.1 2.5 1.8 1.2 0.6 0.0 -0.3 -0.2 -0.0 -1.5 -1.9 -2.1 -2.9 -3.9 -3.3 -3.3 -2.1 -0.2 0.5 0.7
Wind_Speed
13 11 9 14 18 16 16 19 10 30 13 18 12 7 7 6 5 4 3 4 5 7 8 8 8 8 9 9 5 7 9 9 10 14 16 15 15 14 13 13 13 13 14 13
8 13 14 20 18 18 20 20 17 21 24 15 5 6 6 6 3 0 2 2 4 7 9 9 9 8 9 9 4 6 8 8 9 12 14 17 16 15 14 14 13 13 13 12
9 7 10 12 9 5 2 5 7 13 16 5 6 7 5 4 2 2 3 3 4 8 7 8 8 7 6 8 7 10 11 11 13 14 13 15 16 17 15 14 14 13 12 10
5 6 5 6 19 7 10 3 6 7 7 7 6 6 5 4 3 2 4 4 5 4 5 7 6 6 6 7 8 10 11 12 13 14 14 14 16 17 17 12 14 11 11 12
4 4 12 11 4 5 5 5 10 7 8 6 8 6 5 5 4 5 5 6 4 4 3 5 6 5 7 9 9 9 9 11 11 16 16 16 14 16 15 14 13 11 10 11
3 4 4 4 4 5 3 2 9 8 8 7 9 5 2 7 4 4 6 5 4 4 5 5 6 5 9 9 10 10 9 10 10 12 17 17 14 14 11 13 13 10 11 10
11 10 7 5 7 5 1 2 5 9 9 8 5 4 5 5 2 4 5 5 4 6 5 5 6 7 10 10 11 10 12 13 12 12 17 15 13 12 13 13 12 11 11 9
4 6 9 7 3 4 2 5 6 6 7 11 8 8 5 5 2 1 4 4 6 5 5 6 6 8 10 10 9 12 14 14 13 12 12 11 14 12 12 12 12 10 10 7
3 3 4 4 2 4 4 4 3 5 7 9 9 10 8 4 3 2 3 4 4 5 4 5 5 6 12 8 10 11 13 13 12 12 11 11 12 11 9 9 8 8 7 7
5 4 9 12 9 8 11 8 7 6 5 6 8 10 12 6 3 3 3 4 3 6 5 4 6 6 8 9 9 11 12 11 10 12 12 10 7 7 7 7 7 6 6 6
13 15 15 17 8 12 17 14 13 10 8 10 7 9 9 6 5 5 5 5 5 5 5 6 6 7 6 9 10 10 11 10 10 9 9 8 6 5 4 4 7 7 6 7
15 19 17 21 20 23 20 19 17 13 14 8 5 10 8 5 5 3 5 5 5 6 6 7 7 6 6 6 10 12 10 8 8 8 7 7 8 8 13 11 13 12 13 8
16 18 16 19 16 18 16 17 15 12 9 7 6 8 6 5 4 5 5 6 7 6 7 8 9 7 6 7 8 10 10 9 8 8 7 7 7 8 8 9 15 14 14 13
18 18 21 19 15 18 17 17 17 16 13 10 9 7 7 6 6 5 7 7 7 8 8 10 9 8 6 7 8 9 9 15 8 8 8 7 7 7 7 8 7 4 9 9
12 15 14 18 16 16 17 16 12 13 12 10 8 9 6 8 8 7 7 7 8 10 10 10 11 9 9 9 9 10 8 6 6 6 6 8 7 6 6 6 6 5 3 6
17 16 17 18 20 17 15 15 13 13 10 10 8 8 9 8 8 7 6 8 11 11 12 13 12 11 10 10 10 8 8 15 12 8 7 7 7 7 6 5 6 5 4 4
17 19 17 18 18 20 18 16 15 15 15 9 8 8 7 7 7 7 7 8 10 10 12 12 12 12 10 11 12 8 7 8 15 7 7 7 6 6 5 5 5 4 4 5
16 17 18 19 19 19 20 19 15 15 14 13 8 7 7 7 7 6 7 6 6 7 9 8 10 13 12 10 11 9 8 8 7 7 6 6 5 5 5 5 4 4 3 5
16 18 18 19 18 19 19 19 16 12 12 12 10 7 7 6 6 6 6 7 7 10 8 12 18 14 11 10 12 8 8 8 7 7 7 10 6 5 4 4 4 4 4 3
17 16 17 16 16 16 18 17 15 13 12 12 8 5 5 5 3 5 5 5 2 4 10 13 13 11 12 13 13 7 9 9 8 7 6 6 6 5 4 7 5 5 5 4
16 16 15 15 14 14 15 7 9 8 7 1 3 2 5 4 5 6 8 5 5 7 11 15 10 9 9 13 10 8 8 8 7 7 6 6 6 5 4 4 4 5 4 3
14 15 15 15 13 13 13 12 11 9 9 9 8 8 9 8 9 10 8 6 4 11 8 8 7 14 12 17 8 8 8 8 7 6 6 6 5 5 4 4 4 4 4 4
13 14 14 15 13 12 14 14 12 12 11 11 10 9 8 5 3 6 7 6 5 11 7 8 16 20 18 8 7 7 7 7 6 5 5 4 4 4 4 4 4 4 4 3
14 14 15 14 13 15 16 14 14 14 13 14 14 10 7 8 9 7 8 14 17 13 10 10 15 20 17 7 7 7 6 6 6 5 5 8 4 4 3 3 3 2 2 4
13 13 15 16 15 12 14 13 13 14 14 15 14 13 14 10 9 8 10 11 21 14 11 21 23 21 9 9 8 7 6 6 5 5 5 4 4 3 3 3 3 3 3 2
12 9 9 13 11 11 10 10 10 10 10 11 11 11 10 10 10 11 11 15 12 16 10 9 9 9 9 8 8 7 6 6 5 5 6 5 4 4 4 4 3 3 2 2
9 16 10 10 11 10 10 11 10 11 11 9 10 10 10 10 12 12 15 10 10 10 9 8 8 10 8 8 7 6 6 5 8 5 4 3 3 3 3 2 2 3 3 2
Wind_Direction
270 289 306 292 279 267 250 254 245 267 271 282 306 334 328 300 75 45 15 359 352 337 335 337 339 337 331 325 149 148 154 158 156 154 127 121 114 113 110 107 108 112 110 103
298 298 285 280 279 270 255 256 253 259 273 284 295 301 298 303 89 143 332 74 2 346 341 344 344 339 333 322 146 137 144 138 114 109 124 122 117 114 114 108 107 109 106 112
281 286 326 291 260 323 295 271 250 243 256 309 312 324 317 336 185 225 290 356 59 353 348 344 347 347 352 352 89 96 95 101 110 115 116 120 124 121 114 115 114 111 116 127
287 328 242 258 321 292 254 313 13 346 2 354 306 293 307 299 298 205 221 350 54 21 360 353 351 12 29 40 50 99 108 112 116 112 112 116 124 121 117 127 123 124 125 114
251 229 295 297 10 15 25 55 9 347 348 347 325 315 14 31 18 9 68 77 66 39 45 15 8 22 62 69 72 79 95 108 118 123 120 116 115 118 125 123 118 121 118 119
234 253 272 97 38 6 331 99 355 349 355 351 336 11 306 348 5 46 78 68 71 61 81 47 31 53 74 78 87 84 90 96 106 119 119 111 120 119 123 118 116 118 110 107
234 245 284 5 330 332 59 340 1 18 3 2 6 294 294 336 23 44 54 94 85 67 68 76 77 79 80 84 87 99 97 95 94 104 106 108 108 113 111 107 108 108 108 110
206 235 255 336 22 45 327 355 25 12 356 4 359 338 344 346 67 89 101 72 94 89 64 93 101 99 90 81 97 104 103 102 101 102 103 107 105 102 104 110 114 119 119 118
245 242 326 21 55 333 313 268 337 22 358 357 346 349 339 319 275 179 147 132 111 121 96 106 103 117 105 103 106 108 107 104 105 109 107 101 106 113 114 118 123 124 125 122
315 271 315 318 323 311 6 358 356 339 324 352 329 329 331 344 240 215 170 150 130 135 136 114 127 109 115 127 121 110 105 109 114 111 113 119 125 128 129 132 127 129 134 133
287 296 292 283 298 337 335 331 326 319 315 320 308 309 296 320 310 205 191 172 157 166 162 152 127 132 152 140 127 120 118 122 121 122 121 112 102 113 115 124 148 150 146 149
274 277 286 292 299 303 305 306 305 305 311 302 299 303 287 319 317 224 189 170 165 179 149 137 120 131 143 131 138 133 129 126 127 121 114 112 110 97 84 105 121 124 127 131
268 278 279 277 278 281 280 279 276 273 273 290 286 286 307 303 285 275 192 175 182 177 149 146 141 147 151 139 138 139 134 133 127 125 128 128 125 125 118 95 102 110 127 129
279 281 287 291 290 291 283 279 279 285 273 265 254 256 263 274 279 243 218 191 179 156 156 152 150 159 153 135 134 137 137 142 138 142 143 143 141 135 132 137 133 129 125 130
333 324 301 302 300 297 304 299 279 271 273 261 245 251 262 271 261 248 223 177 169 164 158 159 152 160 157 149 145 142 140 135 131 126 130 130 127 127 132 134 136 137 124 125
309 303 304 299 300 298 303 310 293 287 269 255 241 233 237 250 256 244 218 163 165 177 172 167 166 155 157 146 137 139 139 142 140 141 140 139 138 140 143 143 142 148 152 157
314 312 309 297 296 297 291 290 287 289 300 270 247 236 229 241 260 240 217 184 186 180 171 172 167 147 154 151 145 145 146 149 149 136 139 144 146 150 150 143 148 152 167 175
304 300 297 294 294 291 288 284 279 277 278 285 264 242 240 235 234 239 215 179 164 158 165 156 154 150 152 156 146 145 145 144 143 143 137 140 146 143 144 143 148 149 151 174
315 307 301 296 290 284 279 273 270 270 273 279 267 228 229 250 249 224 180 172 163 164 173 149 153 150 149 147 139 138 138 133 133 136 141 152 147 142 143 146 146 145 150 157
320 317 310 307 302 289 277 261 261 259 261 268 237 225 238 249 188 146 123 118 184 147 144 146 141 144 136 132 127 132 133 135 137 138 138 133 140 147 148 157 153 155 157 165
331 330 330 333 331 333 339 267 244 255 265 264 152 184 136 110 105 114 109 97 6 122 132 129 131 135 130 137 130 129 131 130 134 140 145 149 151 147 146 150 154 156 158 160
342 342 345 349 354 0 2 17 35 41 46 49 56 70 84 76 77 72 58 87 89 107 110 109 122 129 127 126 126 126 129 128 129 133 138 147 150 153 156 155 159 158 161 171
349 356 356 2 4 14 21 26 33 44 48 53 59 65 69 68 63 99 95 71 83 97 95 102 123 120 113 100 101 104 110 114 122 127 129 129 138 143 144 153 163 159 160 162
0 5 7 5 15 24 28 24 33 38 44 48 47 44 65 84 77 72 86 88 88 88 90 99 102 98 93 91 92 92 90 92 96 102 104 109 103 105 104 118 127 137 146 159
10 10 16 17 21 21 24 23 34 34 37 38 40 42 48 49 64 59 65 68 68 71 75 82 82 79 76 77 79 81 85 90 94 93 95 97 106 112 88 89 93 82 72 59
12 16 14 19 18 22 22 25 35 33 34 39 35 32 39 46 51 52 58 60 59 63 60 61 62 67 70 73 71 69 67 72 68 75 77 72 73 73 69 61 58 63 67 46
18 24 18 19 16 15 28 29 31 35 33 34 42 28 34 40 46 50 53 50 53 53 54 53 56 64 69 71 71 68 64 66 81 70 62 67 66 73 70 69 84 81 59 43